Regional Weather Roundup
Issued by NWS

Home | Current Version | Previous Version | Graphics & Text | Print | Product List | Glossary On
Versions: 1 2 3 4 5 6 7 8 9 10 11 12 13 14 15 16 17 18 19 20 21 22 23 24 25 26 27 28 29 30 31 32 33 34 35 36 37 38 39 40 41 42 43 44 45 46 47 48 49 50
000
ASUS45 KBOU 301207
RWRCO

WEATHER ROUNDUP FOR COLORADO
NATIONAL WEATHER SERVICE DENVER/BOULDER CO
600 AM MDT MON MAY 30 2016

NOTE: "FAIR" INDICATES FEW OR NO CLOUDS BELOW 12000 FEET WITH NO
SIGNIFICANT WEATHER AND/OR OBSTRUCTIONS TO VISIBILITY.

COZ001>005-013-030-031-301300-
...NORTHWEST COLORADO...

CITY           SKY/WX    TMP DP  RH WIND       PRES   REMARKS
CRAIG          FAIR      37  34  89 CALM      30.16R
HAYDEN         FAIR      41  32  70 E7        30.15S
MEEKER         FAIR      40  34  79 E6        30.17R
MOUNT WERNER   NOT AVBL
STEAMBOAT SPGS FAIR      37  33  84 CALM      30.16S
WALDEN         NOT AVBL
$$

COZ006>008-011-301300-
...WEST CENTRAL VALLEYS...

CITY           SKY/WX    TMP DP  RH WIND       PRES   REMARKS
GRAND JUNCTION FAIR      48  37  65 SE5       30.06R
MONTROSE       FAIR      45  31  58 S7        30.13S
EAGLE          FAIR      37  34  87 E5        30.22S
RIFLE          FAIR      40  34  79 S7        30.12S
DELTA          FAIR      50  34  52 N3        30.10R
NUCLA          FAIR      46  30  53 E9        30.14R
$$

COZ017>023-064>068-301300-
...SOUTHWEST COLORADO...

CITY           SKY/WX    TMP DP  RH WIND       PRES   REMARKS
DURANGO        FAIR      38  27  64 S3        30.16S
CORTEZ         FAIR      38  27  64 E6        30.12R
PAGOSA SPRINGS FAIR      39  26  61 CALM      30.22S
TELLURIDE      FAIR      42  25  50 SE7       30.29S
WOLF CREEK PAS FAIR      36  18  48 SW13      30.46S
$$

COZ009-010-012-014-032>034-037-058>063-301300-
...CENTRAL COLORADO...

CITY           SKY/WX    TMP DP  RH WIND       PRES   REMARKS
ASPEN          FAIR      36  29  75 VRB3      30.21R
BUENA VISTA    FAIR      38  28  65 NW7       30.25F
COPPER MTN     NOT AVBL
BERTHOUD PASS  FAIR      32  23  69 W6        30.43S WCI  26
COTTONWOOD PAS FAIR      46  19  34 W8        30.32S
GUNNISON       FAIR      34  28  80 CALM      30.29R
KREMMLING      FAIR      32  30  93 CALM      30.24S
LEADVILLE      FAIR      30  24  78 CALM      30.32S
SALIDA         FAIR      39  30  68 NW3       30.32S
SUNLIGHT       FAIR      41  27  56 CALM      30.37F
WILKERSON PASS FAIR      37  25  60 SW5       30.40F
$$

COZ069>075-301300-
...SAN LUIS VALLEY/SANGRE DE CRISTO MOUNTAINS...

CITY           SKY/WX    TMP DP  RH WIND       PRES   REMARKS
ALAMOSA        FAIR      38  36  92 S6        30.22R
LA VETA PASS   FAIR      43  27  52 S3        30.34S
SAGUACHE       FAIR      39  32  75 NW15G21   30.23S
$$

COZ035-036-038>040-301300-
...NORTHERN COLORADO FRONT RANGE...

CITY           SKY/WX    TMP DP  RH WIND       PRES   REMARKS
DENVER INTL AP FAIR      50  40  68 SW10      30.05F
DMNS CITY PARK   N/A     52  37  57 SE6G12    30.05S
AURORA         PTCLDY    48  39  72 CALM      30.07F
FRONT RANGE AP NOT AVBL
ERIE MUNI ARPT FAIR      42  39  91 CALM      30.05S
BOULDER MUN AP FAIR      46  37  71 CALM      30.04S
CENTENNIAL     FAIR      51  37  58 SW13      30.08F
BROOMFIELD     FAIR      46  37  71 CALM      30.07S
FORT COLLINS   FAIR      46  43  87 N9        30.05F
LONGMONT       FAIR      49  40  72 W5        30.06S
$$

COZ041-046-047-076>085-087-088-301300-
...PIKES PEAK/PALMER DIVIDE AND SOUTHERN FOOTHILLS...

CITY           SKY/WX    TMP DP  RH WIND       PRES   REMARKS
COLO. SPRINGS  FAIR      46  39  76 N3        30.13F
A. F. ACADEMY  FAIR      41  37  87 N8        30.13S
SCHRIEVER AFB  NOT AVBL
ELLICOTT       NOT AVBL
FALCON         FAIR      45  38  78 W12       30.16R
FORT CARSON    FAIR      44  38  78 NW7       30.10F
LIMON          FAIR      38  38 100 S3        30.08R
MONUMENT HILL  FAIR      41  36  81 SW7       30.16F
TRINIDAD       FAIR      52  44  74 W15       30.11S
$$

COZ042>045-048>051-090-091-301300-
...NORTHEAST COLORADO...

CITY           SKY/WX    TMP DP  RH WIND       PRES   REMARKS
GREELEY ARPT   FAIR      45  41  87 NW3       30.04F
AKRON          FAIR      49  45  86 SW9       30.04F
BURLINGTON     FAIR      51  47  86 SW7       30.03F
WRAY           NOT AVBL
STERLING       FAIR      48  46  93 SW7       30.01S
HOLYOKE        FAIR      55  52  88 SW9       30.01S
FORT MORGAN    FAIR      48  43  81 SW5       30.04S
$$

COZ086-089-092>099-301300-
...SOUTHEAST COLORADO...

CITY           SKY/WX    TMP DP  RH WIND       PRES   REMARKS
PUEBLO         FAIR      48  44  86 SW3       30.07S
LA JUNTA       FAIR      52  46  80 S6        30.04S
LAMAR          FAIR      45  43  93 E3        30.01F
SPRINGFIELD      N/A     46  45  96 W3        30.08S
$$



USA.gov is the U.S. government's official web portal to all federal, state and local government web resources and services.